www.pogodaiklimat.ru

Погода и климат >> Архив погоды >> Мексика >> Acapulco


АРХИВ ПОГОДЫ в Acapulco

Время (UTC), дата Ветер
(напр.,м/с)
 
Видим.   Явления Облачность Т
(С)
Тd
(С)
f
(%)
Тe
(С)
Тes
(С)
Комфортность P
(гПа)
Po
(гПа)
Тmin
(С)
Tmax
(С)
R
(мм)
R24
(мм)
S
(см)
09 18.04 ЮЗ 1 10 км туман 1/1 900 м
[Sc]
+23.4 +21.9 91 +32 +32 очень
душно
1012.3 1011.8
12 18.04 СЗ 1 18 км дымка 3/3 900 м
[Sc]
+22.0 +21.1 95 +28 +28 душно 1012.3 1011.9 +20.4 +32.2
15 18.04 З 1 19 км мгла ясно +27.0 +21.8 73 +35 +44 очень
душно
1013.2 1012.9
18 18.04 ЮЗ 5 19 км мгла ясно +29.4 +21.4 62 +37 +48 очень
душно
1012.5 1012.2 +20.4 +31.3
21 18.04 З 5 19 км мгла 1/1 900 м
[Cu hum]
+29.5 +22.8 67 +39 +46 очень
душно
1010.9 1010.6
00 19.04 Ю 2 19 км мгла 1/1 600 м
[Cu hum]
+28.2 +23.1 74 +38 +39 очень
душно
1010.7 1010.2 +20.4 +31.3
03 19.04 З 1 10 км ясно +24.4 +22.9 91 +32 +32 очень
душно
1013.0 1012.6
06 19.04 СВ 1 10 км ясно +23.8 +22.8 94 +31 +31 очень
душно
1015.1 1014.6 +20.4 +31.3
09 19.04 С 1 10 км ясно +23.6 +22.0 91 +30 +30 очень
душно
1012.7 1012.3
12 19.04 СЗ 1 18 км туман ясно +21.8 +20.7 93 +28 +28 душно 1012.3 1011.9 +20.3 +31.3
15 19.04 СЗ 1 19 км мгла ясно +27.6 +20.7 66 +34 +44 очень
душно
1013.2 1012.9
18 19.04 ЮЗ 3 19 км мгла ясно +30.8 +22.0 59 +39 +57 опасность
солнечного
удара
1012.3 1011.9 +20.3 +31.8
21 19.04 ЮЗ 3 19 км мгла 1/1 900 м
[Cu med, cong]
+30.5 +23.1 65 +41 +52 опасность
перегрева
1010.6 1010.1
00 20.04 ЮЗ 3 19 км мгла 4/3 600 м
[Sc Cs]
+28.6 +23.7 75 +39 +40 очень
душно
1010.9 1010.5 +20.3 +32.0
03 20.04 ЮЗ 2 10 км 3/0
[Cs]
+25.6 +23.6 89 +35 +35 очень
душно
1012.3 1011.8
06 20.04 З 1 10 км 1/0
[Cs]
+24.2 +23.0 93 +32 +32 очень
душно
1014.1 1013.7 +20.3 +32.0
09 20.04 З 1 10 км 4/4 840 м
[Cu med, cong]
+23.2 +22.5 96 +32 +32 очень
душно
1013.0 1012.5
12 20.04 СЗ 1 18 км 1/0
[Cs]
+22.5 +21.5 94 +30 +30 очень
душно
1012.3 1011.7 +21.0 +32.0
15 20.04 В 1 19 км мгла ясно +26.7 +22.4 77 +35 +44 очень
душно
1013.9 1013.5
18 20.04 Ю 3 19 км мгла ясно +31.7 +22.7 59 +41 +59 опасность
перегрева
1013.0 1012.5 +21.0 +32.6
21 20.04 ЮЗ 3 19 км мгла 3/3 840 м
[Cu med, cong]
+30.6 +23.8 67 +42 +51 опасность
перегрева
1010.9 1010.4
00 21.04 З 3 19 км мгла 1/1 600 м
[Cu med, cong]
+29.0 +22.6 68 +38 +39 очень
душно
1010.2 1009.7 +21.0 +32.9
03 21.04 ЮЗ 1 10 км 3/1 870 м
[Cu med, cong Ac und]
+25.8 +22.7 83 +34 +34 очень
душно
1012.5 1012.0
06 21.04 З 1 10 км 1/0 1500 м
[Ac und]
+23.7 +22.2 91 +31 +31 очень
душно
1013.7 1013.2 +21.0 +32.9
09 21.04 СЗ 1 10 км 1/1 660 м
[Cu med, cong]
+22.9 +22.0 95 +31 +31 очень
душно
1012.5 1012.1
12 21.04 З 1 15 км 3/1 840 м
[Cu med, cong Ac und]
+22.1 +21.3 95 +29 +29 очень
душно
1012.3 1011.7 +20.6 +32.9
15 21.04 С 1 19 км мгла ясно +26.6 +22.2 77 +35 +44 очень
душно
1013.0 1012.5
18 21.04 ЮЗ 3 19 км мгла ясно +30.3 +21.3 59 +38 +56 опасность
солнечного
удара
1011.6 1011.2 +20.6 +31.9
21 21.04 ЮЗ 4 19 км мгла ясно +30.8 +23.0 63 +41 +51 опасность
перегрева
1008.8 1008.4
00 22.04 З 5 19 км мгла 1/0 2000 м
[Ac trans]
+28.6 +22.1 68 +37 +38 очень
душно
1007.9 1007.5 +20.6 +31.9
03 22.04 З 1 10 км ясно +25.0 +21.4 80 +32 +32 очень
душно
1009.7 1009.3
06 22.04 З 1 10 км ясно +23.7 +21.9 90 +31 +31 очень
душно
1010.7 1010.2 +20.6 +31.9
09 22.04 ЮВ 1 10 км ясно +22.0 +20.2 90 +28 +28 душно 1010.4 1010.1
12 22.04 С 1 15 км 1/0
[Cs]
+21.2 +20.3 95 +26 +26 душно 1010.7 1010.4 +19.8 +31.9
15 22.04 С 1 19 км мгла 1/1 870 м
[Cu hum]
+26.3 +21.0 73 +33 +42 очень
душно
1012.0 1011.8
18 22.04 ЮЗ 3 19 км мгла ясно +30.3 +22.3 62 +39 +57 опасность
солнечного
удара
1011.4 1010.9 +19.8 +31.0
21 22.04 ЮЗ 5 19 км мгла ясно +30.1 +22.9 65 +40 +48 очень
душно
1009.0 1008.7
00 23.04 ЮЗ 4 20 км 1/1 600 м
[Cu hum]
+27.9 +22.6 73 +37 +38 очень
душно
1008.1 1007.8 +19.8 +31.1
03 23.04 З 2 10 км ясно +25.5 +22.9 86 +34 +34 очень
душно
1010.2 1009.9
06 23.04 СЗ 1 10 км ясно +23.7 +22.4 92 +31 +31 очень
душно
1011.6 1011.2 +19.8 +31.1
09 23.04 СВ 1 10 км ясно +23.3 +22.4 95 +32 +32 очень
душно
1010.6 1010.4
12 23.04 СЗ 1 15 км 1/0
[Cs]
+21.8 +21.2 96 +28 +28 душно 1010.4 1010.1 +20.4 +31.1
15 23.04 СЗ 1 19 км 4/1 900 м
[Cu hum Ac lent]
+25.9 +21.1 75 +33 +39 очень
душно
1012.3 1011.9
18 23.04 Ю 3 19 км 9/1 900 м
[Cu med, cong Ac und Cs]
+31.1 +21.7 57 +39 +48 очень
душно
1012.0 1011.7 +20.4 +32.2
21 23.04 Ю 3 19 км 5/1 840 м
[Cu hum Cs]
+31.3 +22.9 61 +41 +52 опасность
перегрева
1010.4 1009.9
00 24.04 ЮЗ 2 19 км мгла 4/0
[Cs]
+29.5 +21.8 63 +38 +39 очень
душно
1010.6 1010.1 +20.4 +32.9
03 24.04 З 1 10 км 3/0
[Cs]
+25.7 +22.1 81 +33 +33 очень
душно
1012.0 1011.7
12 24.04 СЗ 1 15 км 3/0
[Cs]
+21.2 +20.0 93 +26 +26 душно 1010.9 1010.4 +19.9 +32.9
15 24.04 С 1 18 км {туман} ясно +26.9 +20.5 68 +33 +43 очень
душно
1012.7 1012.3
18 24.04 ЮЗ 2 18 км мгла ясно +31.2 +20.6 53 +38 +60 опасность
солнечного
удара
1012.3 1011.8 +19.9 +32.3
21 24.04 ЮЗ 3 18 км мгла {туман} ясно +31.0 +22.7 61 +41 +53 опасность
перегрева
1010.4 1010.0
00 25.04 ЮЗ 3 18 км 3/0
[Cs]
+29.8 +23.8 70 +41 +42 опасность
перегрева
1009.3 1008.8 +19.9 +32.8
03 25.04 З 1 10 км 3/0
[Cs]
+26.8 +24.2 86 +37 +37 очень
душно
1011.1 1010.6

 

Местоположение метеостанции Acapulco (Мексика): широта 16.83 долгота -99.93 высота над уровнем моря 3 м.

В архиве по умолчанию представлена погода в Acapulco за последнюю неделю. Архивные данные за месяц целиком и за предыдущие месяцы, начиная с января 2011 года, Вы можете получить, выбрав интересующий диапазон дат из раскрывающегося списка и нажав кнопку "Ввод!".

Внимание! Время в таблицах - всемирное. Для получения местного времени необходимо прибавить поправку, которая в Acapulco равна -6 ч.

Смотрите также архив погоды в соседних городах и на ближайших метеорологических станциях:

Погода в Chilpancingo (Мексика) (92 км)
Погода в Zacatepec (Мексика) (223 км)
Погода в Cuernavaca (Мексика) (240 км)
Погода в Huajuapan De Leon (Мексика) (253 км)
Погода в Toluca (Мексика) (274 км)
Погода в Geografia Unam (Мексика) (288 км)
Погода в Mexico City (Мексика) (297 км)
Погода в Puebla (Мексика) (310 км)
Погода в Tlaxcala Airport (Мексика) (329 км)
Погода в Tlaxcala (Мексика) (329 км)

Пояснения к столбцам:

Ветер - указаны скорость ветра в м/с - средняя за 10 мин, порывы в срок и между сроками (в фигурных скобках) и направление, откуда дует ветер: С - северный, СВ - северо-восточный, В - восточный, ЮВ - юго-восточный, Ю - южный, ЮЗ - юго-западный, З - западный, СЗ - северо-западный.
Видимость - горизонтальная дальность видимости в метрах или километрах. При видимости от 1 до 10 км при отсутствии осадков обычно наблюдается дымка, при ухудшении видимости до 1 км и менее - туман. В сухую погоду видимость может ухудшаться дымом, пылью или мглою.
Явления - указаны атмосферные явления, наблюдавшиеся в срок или в последний час перед сроком; фигурными скобками обозначены явления, наблюдавшиеся между сроками (за 1-3 часа до срока); квадратными скобками обозначены град или гололедные отложения с указанием их диаметра в мм.
Облачность - указаны через наклонную черту общая и нижняя облачность в баллах и высота нижней границы облаков в метрах; квадратными скобками обозначены формы облаков: Ci - перистые, Cs - перисто-слоистые, Cc - перисто-кучевые, Ac - высококучевые, As - высокослоистые, Sc - слоисто-кучевые, Ns - слоисто-дождевые, Cu - кучевые, Cb - кучево-дождевые. Подробнее классификацию облаков см. в Атласе облаков (PDF).
T - Температура воздуха - температура, измеренная на высоте 2 м над землей.
Td - Температура точки росы - температура, при понижении до которой содержащийся в воздухе водяной пар достигнет насыщения.
f - Относительная влажность воздуха - влажноcть воздуха, измеренная на высоте 2 м над землей.
Te - Эффективная температура - температура, которую ощущает одетый по сезону человек в тени. Характеристика душности погоды. При расчете учитывается влияние влажности воздуха и скорости ветра на теплоощущения человека.
Tes - Эффективная температура на солнце - температура, которую ощущает человек, с поправкой на солнечный нагрев. Характеристика знойности погоды. Зависит от высоты солнца над горизонтом, облачности и скорости ветра. Ночью, в пасмурную погоду, а также при ветре 12 м/с и более поправка равна нулю.
P - Атмосферное давление - приведенное к уровню моря атмосферное давление.
Po - Атмосферное давление - измеренное на уровне метеостанции атмосферное давление.
Tmin - Минимальная температура - минимум температуры воздуха на высоте 2 м над землей.
Tmax - Максимальная температура - максимум температуры воздуха на высоте 2 м над землей.
R - Количество осадков - Количество выпавших осадков за период времени, мм. При наведении курсора мыши на число - период времени, за который выпало указанное количество осадков.
R24 - Количество осадков - Количество выпавших осадков за 24 часа, мм.
S - Снежный покров - Высота снежного покрова, см. При наведении курсора мыши на число - состояние снежного покрова и степень покрытия местности в баллах.